User: anonymous   Login
Location: Chacón
(10.5789°N, 66.9317°W)
Time: 08:55:58
(UTC+00:00)
Language:

Geosat - Orbit

View from above orbital plane
View from above orbital plane
View from above satellite
View from above satellite

Ground track
Ground track

The orbit data is extracted from the following two-line orbital elements,

1 15595U 85021A   24204.22503122  .00000527  00000-0  21415-3 0  9990
2 15595 108.0584  75.3139 0001858 254.3056 105.7881 14.39065756 63058
Epoch (UTC): 22 July 2024 05:24:02
Eccentricity: 0.0001858
inclination: 108.0584°
perigee height: 760 km
apogee height: 763 km
right ascension of ascending node: 75.3139°
argument of perigee: 254.3056°
revolutions per day: 14.39065756
mean anomaly at epoch: 105.7881°
orbit number at epoch: 6305

The dashed part of the orbit path shows where the satellite is in the earth's shadow,  

DLR